Location: Unspecified
(43.4354°N, 0.0000°E)
Time: 10:00:06
(UTC+00:00)

Vanguard 1 Rocket - Pass Details

Date: 22 June 2019
Orbit: 651 x 4225 km, 34.3° (Epoch: 15 July)

Event Time Altitude Azimuth Distance (km) Brightness Sun altitude
Rises 22:29:21 0° 271° (W) 4,692 11.4 -19.8°
Reaches altitude 10° 22:34:10 10° 254° (WSW) 3,097 10.2 -20.1°
Maximum altitude 22:38:28 17° 216° (SW) 2,145 9.0 -20.4°
Enters shadow 22:38:32 17° 216° (SW) 2,139 9.0 -20.4°
